Time,TemperatureF,DewpointF,PressureIn,WindDirection,WindDirectionDegrees,WindSpeedMPH,WindSpeedGustMPH,Humidity,HourlyPrecipIn,Conditions,Clouds,dailyrainin,SoftwareType,DateUTC
2013-08-06 00:01:00,34.2,27.0,29.72,NNE,21,0.0,0.0,80,0.00,,,0.00,TxWx,2013-08-06 05:01:00,
2013-08-06 00:07:00,34.2,27.0,29.72,NNE,21,0.0,0.0,80,0.00,,,0.00,TxWx,2013-08-06 05:07:00,
2013-08-06 00:12:00,34.1,27.0,29.72,NNE,22,0.0,0.0,80,0.00,,,0.00,TxWx,2013-08-06 05:12:00,
2013-08-06 00:17:00,34.1,27.0,29.72,NNE,21,0.0,0.0,80,0.00,,,0.00,TxWx,2013-08-06 05:17:00,
2013-08-06 00:22:00,34.2,27.0,29.72,NNE,20,0.0,0.0,80,0.00,,,0.00,TxWx,2013-08-06 05:22:00,
2013-08-06 00:27:00,34.0,27.0,29.72,NNE,18,0.0,0.0,80,0.00,,,0.00,TxWx,2013-08-06 05:27:00,
2013-08-06 00:33:00,33.8,27.0,29.72,NNE,20,0.0,0.0,80,0.00,,,0.00,TxWx,2013-08-06 05:33:00,
2013-08-06 00:38:00,33.8,27.0,29.71,NNE,20,0.0,0.0,80,0.00,,,0.00,TxWx,2013-08-06 05:38:00,
2013-08-06 00:43:00,33.7,27.0,29.71,NNE,19,0.0,0.0,80,0.00,,,0.00,TxWx,2013-08-06 05:43:00,
2013-08-06 00:48:00,33.9,27.0,29.71,NNE,16,0.0,0.0,80,0.00,,,0.00,TxWx,2013-08-06 05:48:00,
2013-08-06 00:53:00,33.7,27.0,29.71,North,8,0.0,0.0,80,0.00,,,0.00,TxWx,2013-08-06 05:53:00,
2013-08-06 00:58:00,33.8,27.0,29.71,NNE,18,0.0,0.0,80,0.00,,,0.00,TxWx,2013-08-06 05:58:00,
2013-08-06 01:04:00,33.8,28.0,29.72,NNE,15,0.0,0.0,81,0.00,,,0.00,TxWx,2013-08-06 06:04:00,
2013-08-06 01:09:00,33.7,28.0,29.71,NNE,19,0.0,0.0,81,0.00,,,0.00,TxWx,2013-08-06 06:09:00,
2013-08-06 01:14:00,33.7,28.0,29.71,NNE,17,0.0,0.0,81,0.00,,,0.00,TxWx,2013-08-06 06:14:00,
2013-08-06 01:20:00,33.7,28.0,29.70,NNE,18,0.0,0.0,81,0.00,,,0.00,TxWx,2013-08-06 06:20:00,
2013-08-06 01:25:00,33.5,28.0,29.70,NNE,19,0.0,0.0,81,0.00,,,0.00,TxWx,2013-08-06 06:25:00,
2013-08-06 01:30:00,33.7,28.0,29.70,NNE,19,0.0,0.0,81,0.00,,,0.00,TxWx,2013-08-06 06:30:00,
2013-08-06 01:35:00,33.6,28.0,29.70,NNE,17,0.0,0.0,82,0.00,,,0.00,TxWx,2013-08-06 06:35:00,
2013-08-06 01:40:00,33.6,28.0,29.70,NNE,18,0.0,0.0,82,0.00,,,0.00,TxWx,2013-08-06 06:40:00,
2013-08-06 01:45:00,33.5,28.0,29.71,North,10,0.0,0.0,81,0.00,,,0.00,TxWx,2013-08-06 06:45:00,
2013-08-06 01:51:00,33.7,28.0,29.71,North,0,0.0,0.0,81,0.00,,,0.00,TxWx,2013-08-06 06:51:00,
2013-08-06 01:55:00,33.4,27.0,29.72,North,1,0.0,0.0,82,0.00,,,0.00,TxWx,2013-08-06 06:55:00,
2013-08-06 02:01:00,33.5,27.0,29.72,North,3,0.0,0.0,82,0.00,,,0.00,TxWx,2013-08-06 07:01:00,
2013-08-06 02:06:00,33.3,27.0,29.72,NNE,19,0.0,0.0,82,0.00,,,0.01,TxWx,2013-08-06 07:06:00,
2013-08-06 02:11:00,33.3,27.0,29.72,NNE,22,0.0,0.0,82,0.00,,,0.08,TxWx,2013-08-06 07:11:00,
2013-08-06 02:16:00,33.3,27.0,29.72,North,10,0.0,0.0,82,0.00,,,0.25,TxWx,2013-08-06 07:16:00,
2013-08-06 02:21:00,32.9,28.0,29.71,NNE,16,0.0,0.0,84,0.00,,,0.30,TxWx,2013-08-06 07:21:00,
2013-08-06 02:26:00,32.7,28.0,29.71,NNE,23,0.0,0.0,85,0.00,,,0.31,TxWx,2013-08-06 07:26:00,
2013-08-06 02:32:00,32.9,28.0,29.71,NNE,18,0.0,0.0,86,0.00,,,0.31,TxWx,2013-08-06 07:32:00,
2013-08-06 02:37:00,32.8,28.0,29.71,NNE,19,0.0,0.0,87,0.00,,,0.31,TxWx,2013-08-06 07:37:00,
2013-08-06 02:42:00,32.6,29.0,29.70,NNE,13,0.0,0.0,87,0.00,,,0.31,TxWx,2013-08-06 07:42:00,
2013-08-06 02:47:00,32.6,29.0,29.70,NNE,12,0.0,0.0,88,0.00,,,0.31,TxWx,2013-08-06 07:47:00,
2013-08-06 02:52:00,32.6,29.0,29.70,NNE,12,0.0,0.0,88,0.00,,,0.31,TxWx,2013-08-06 07:52:00,
2013-08-06 02:57:00,32.6,29.0,29.70,NNE,19,0.0,0.0,88,0.00,,,0.31,TxWx,2013-08-06 07:57:00,
2013-08-06 03:02:00,32.4,28.0,29.70,NNE,22,0.0,0.0,88,0.00,,,0.31,TxWx,2013-08-06 08:02:00,
2013-08-06 03:08:00,32.7,29.0,29.70,NNE,17,0.0,0.0,88,0.00,,,0.31,TxWx,2013-08-06 08:08:00,
2013-08-06 03:13:00,32.6,29.0,29.70,NNE,18,0.0,0.0,88,0.00,,,0.31,TxWx,2013-08-06 08:13:00,
2013-08-06 03:18:00,32.7,29.0,29.70,NNE,19,0.0,0.0,89,0.00,,,0.31,TxWx,2013-08-06 08:18:00,
2013-08-06 03:24:00,32.6,29.0,29.69,NNE,25,0.0,0.0,89,0.00,,,0.31,TxWx,2013-08-06 08:24:00,
2013-08-06 03:29:00,32.4,28.0,29.69,NNE,18,0.0,0.0,89,0.00,,,0.31,TxWx,2013-08-06 08:29:00,
2013-08-06 03:34:00,32.5,28.0,29.69,NNE,23,0.0,0.0,89,0.00,,,0.31,TxWx,2013-08-06 08:34:00,
2013-08-06 03:39:00,32.3,28.0,29.68,NNE,22,0.0,0.0,89,0.00,,,0.31,TxWx,2013-08-06 08:39:00,
2013-08-06 03:44:00,32.6,29.0,29.68,NNE,19,0.0,0.0,89,0.00,,,0.31,TxWx,2013-08-06 08:44:00,
2013-08-06 03:50:00,32.6,29.0,29.68,NNE,19,0.0,0.0,89,0.00,,,0.31,TxWx,2013-08-06 08:50:00,
2013-08-06 03:55:00,32.6,29.0,29.68,NNE,22,0.0,0.0,89,0.00,,,0.31,TxWx,2013-08-06 08:55:00,
2013-08-06 04:00:00,32.3,28.0,29.68,NNE,17,0.0,0.0,90,0.00,,,0.31,TxWx,2013-08-06 09:00:00,
2013-08-06 04:05:00,32.3,28.0,29.68,NNE,23,0.0,0.0,90,0.00,,,0.31,TxWx,2013-08-06 09:05:00,
2013-08-06 04:11:00,32.5,28.0,29.68,NNE,21,0.0,0.0,90,0.00,,,0.31,TxWx,2013-08-06 09:11:00,
2013-08-06 04:16:00,32.7,29.0,29.68,NNE,22,0.0,0.0,90,0.00,,,0.31,TxWx,2013-08-06 09:16:00,
2013-08-06 04:21:00,32.6,29.0,29.68,NNE,21,0.0,0.0,90,0.00,,,0.31,TxWx,2013-08-06 09:21:00,
2013-08-06 04:26:00,32.6,29.0,29.68,NNE,20,0.0,0.0,90,0.00,,,0.31,TxWx,2013-08-06 09:26:00,
2013-08-06 04:31:00,32.3,28.0,29.67,NNE,22,0.0,0.0,90,0.00,,,0.31,TxWx,2013-08-06 09:31:00,
2013-08-06 04:36:00,32.4,28.0,29.67,NNE,20,0.0,0.0,90,0.00,,,0.31,TxWx,2013-08-06 09:36:00,
2013-08-06 04:41:00,32.4,28.0,29.68,NNE,21,0.0,0.0,90,0.00,,,0.31,TxWx,2013-08-06 09:41:00,
2013-08-06 04:47:00,32.3,28.0,29.68,NNE,26,0.0,0.0,90,0.00,,,0.31,TxWx,2013-08-06 09:47:00,
2013-08-06 04:52:00,32.5,29.0,29.67,NNE,24,0.0,0.0,90,0.00,,,0.31,TxWx,2013-08-06 09:52:00,
2013-08-06 04:57:00,32.3,28.0,29.67,NNE,26,0.0,0.0,90,0.00,,,0.31,TxWx,2013-08-06 09:57:00,
2013-08-06 05:02:00,32.5,28.0,29.67,NNE,25,0.0,0.0,90,0.00,,,0.31,TxWx,2013-08-06 10:02:00,
2013-08-06 05:07:00,32.2,28.0,29.67,NNE,23,0.0,0.0,90,0.00,,,0.31,TxWx,2013-08-06 10:07:00,
2013-08-06 05:12:00,32.2,28.0,29.68,NNE,24,0.0,0.0,90,0.00,,,0.31,TxWx,2013-08-06 10:12:00,
2013-08-06 05:17:00,32.4,28.0,29.68,NNE,27,0.0,0.0,90,0.00,,,0.31,TxWx,2013-08-06 10:17:00,
2013-08-06 05:22:00,32.5,28.0,29.68,NNE,26,0.0,0.0,90,0.00,,,0.31,TxWx,2013-08-06 10:22:00,
2013-08-06 05:28:00,32.5,28.0,29.68,NNE,25,0.0,0.0,90,0.00,,,0.31,TxWx,2013-08-06 10:28:00,
2013-08-06 05:33:00,32.7,29.0,29.69,NNE,32,0.0,0.0,90,0.00,,,0.31,TxWx,2013-08-06 10:33:00,
2013-08-06 05:38:00,33.0,29.0,29.69,NNE,26,0.0,0.0,90,0.00,,,0.31,TxWx,2013-08-06 10:38:00,
2013-08-06 05:44:00,33.3,29.0,29.69,NNE,25,0.0,0.0,90,0.00,,,0.31,TxWx,2013-08-06 10:44:00,
2013-08-06 05:49:00,33.2,29.0,29.69,NNE,23,0.0,0.0,90,0.00,,,0.31,TxWx,2013-08-06 10:49:00,
2013-08-06 05:54:00,33.7,30.0,29.70,NNE,25,0.0,0.0,90,0.00,,,0.31,TxWx,2013-08-06 10:54:00,
2013-08-06 05:59:00,33.7,30.0,29.70,NNE,26,0.0,0.0,90,0.00,,,0.31,TxWx,2013-08-06 10:59:00,
2013-08-06 06:04:00,33.5,29.0,29.70,NNE,26,0.0,0.0,90,0.00,,,0.31,TxWx,2013-08-06 11:04:00,
2013-08-06 06:10:00,33.8,30.0,29.70,NNE,22,0.0,0.0,90,0.00,,,0.31,TxWx,2013-08-06 11:10:00,
2013-08-06 06:15:00,33.7,30.0,29.70,NNE,23,0.0,0.0,90,0.00,,,0.31,TxWx,2013-08-06 11:15:00,
2013-08-06 06:20:00,34.0,30.0,29.71,NNE,22,0.0,0.0,90,0.00,,,0.31,TxWx,2013-08-06 11:20:00,
2013-08-06 06:25:00,33.9,30.0,29.71,NNE,25,0.0,0.0,90,0.00,,,0.31,TxWx,2013-08-06 11:25:00,
2013-08-06 06:30:00,34.0,30.0,29.71,NNE,21,0.0,0.0,90,0.00,,,0.31,TxWx,2013-08-06 11:30:00,
2013-08-06 06:35:00,34.3,30.0,29.71,NNE,23,0.0,0.0,89,0.00,,,0.31,TxWx,2013-08-06 11:35:00,
2013-08-06 06:40:00,34.4,30.0,29.71,NNE,21,0.0,0.0,89,0.00,,,0.31,TxWx,2013-08-06 11:40:00,
2013-08-06 06:45:00,34.3,30.0,29.72,NNE,22,0.0,0.0,89,0.00,,,0.31,TxWx,2013-08-06 11:45:00,
2013-08-06 06:51:00,34.3,30.0,29.72,NNE,23,0.0,0.0,89,0.00,,,0.31,TxWx,2013-08-06 11:51:00,
2013-08-06 06:56:00,34.6,31.0,29.72,NNE,26,0.0,0.0,89,0.00,,,0.31,TxWx,2013-08-06 11:56:00,
2013-08-06 07:01:00,34.6,31.0,29.73,NNE,31,0.0,0.0,89,0.00,,,0.31,TxWx,2013-08-06 12:01:00,
2013-08-06 07:06:00,34.6,31.0,29.73,NNE,28,0.0,0.0,88,0.00,,,0.31,TxWx,2013-08-06 12:06:00,
2013-08-06 07:11:00,34.9,31.0,29.73,NNE,25,0.0,0.0,88,0.00,,,0.31,TxWx,2013-08-06 12:11:00,
2013-08-06 07:16:00,34.7,31.0,29.73,NNE,27,0.0,0.0,88,0.00,,,0.31,TxWx,2013-08-06 12:16:00,
2013-08-06 07:22:00,34.8,31.0,29.73,NNE,26,0.0,0.0,88,0.00,,,0.31,TxWx,2013-08-06 12:22:00,
2013-08-06 07:27:00,34.8,31.0,29.72,NNE,26,0.0,0.0,88,0.00,,,0.31,TxWx,2013-08-06 12:27:00,
2013-08-06 07:32:00,34.8,31.0,29.72,NNE,26,0.0,0.0,88,0.00,,,0.31,TxWx,2013-08-06 12:32:00,
2013-08-06 07:37:00,34.8,31.0,29.73,NNE,26,0.0,0.0,88,0.00,,,0.31,TxWx,2013-08-06 12:37:00,
2013-08-06 07:43:00,35.1,31.0,29.73,NNE,26,0.0,0.0,88,0.00,,,0.31,TxWx,2013-08-06 12:43:00,
2013-08-06 07:48:00,35.1,31.0,29.72,NNE,26,0.0,0.0,88,0.00,,,0.31,TxWx,2013-08-06 12:48:00,
2013-08-06 07:53:00,35.0,31.0,29.72,NNE,25,0.0,0.0,88,0.00,,,0.31,TxWx,2013-08-06 12:53:00,
2013-08-06 07:58:00,35.2,31.0,29.71,NNE,24,0.0,0.0,88,0.00,,,0.31,TxWx,2013-08-06 12:58:00,
2013-08-06 08:07:00,35.5,33.0,29.72,NNE,26,0.0,0.0,88,0.00,,,0.31,TxWx,2013-08-06 13:07:00,
2013-08-06 08:12:00,35.8,33.0,29.72,NNE,27,0.0,0.0,88,0.00,,,0.31,TxWx,2013-08-06 13:12:00,
2013-08-06 08:17:00,35.8,32.0,29.72,NNE,27,0.0,0.0,87,0.00,,,0.31,TxWx,2013-08-06 13:17:00,
2013-08-06 08:22:00,35.8,32.0,29.72,NNE,28,0.0,0.0,87,0.00,,,0.31,TxWx,2013-08-06 13:22:00,
2013-08-06 08:27:00,35.9,32.0,29.72,NNE,27,0.0,0.0,87,0.00,,,0.31,TxWx,2013-08-06 13:27:00,
2013-08-06 08:33:00,36.0,32.0,29.73,NNE,27,0.0,0.0,86,0.00,,,0.31,TxWx,2013-08-06 13:33:00,
2013-08-06 08:38:00,36.2,32.0,29.73,NNE,27,0.0,0.0,86,0.00,,,0.31,TxWx,2013-08-06 13:38:00,
2013-08-06 08:43:00,36.3,31.0,29.73,NNE,27,0.0,0.0,85,0.00,,,0.31,TxWx,2013-08-06 13:43:00,
2013-08-06 08:48:00,36.3,31.0,29.73,NNE,26,0.0,0.0,85,0.00,,,0.31,TxWx,2013-08-06 13:48:00,
2013-08-06 08:53:00,36.3,31.0,29.73,NNE,26,0.0,0.0,85,0.00,,,0.31,TxWx,2013-08-06 13:53:00,
2013-08-06 08:58:00,36.5,31.0,29.73,NNE,24,0.0,0.0,85,0.00,,,0.31,TxWx,2013-08-06 13:58:00,
2013-08-06 09:04:00,36.6,33.0,29.73,NNE,24,0.0,0.0,85,0.00,,,0.31,TxWx,2013-08-06 14:04:00,
2013-08-06 09:09:00,36.5,33.0,29.73,NNE,25,0.0,0.0,85,0.00,,,0.31,TxWx,2013-08-06 14:09:00,
2013-08-06 09:14:00,36.8,33.0,29.72,NNE,28,0.0,0.0,84,0.00,,,0.31,TxWx,2013-08-06 14:14:00,
2013-08-06 09:19:00,36.8,33.0,29.72,NNE,27,0.0,0.0,84,0.00,,,0.31,TxWx,2013-08-06 14:19:00,
2013-08-06 09:24:00,36.8,33.0,29.73,NNE,25,0.0,0.0,84,0.00,,,0.31,TxWx,2013-08-06 14:24:00,
2013-08-06 09:29:00,36.9,33.0,29.72,NNE,25,0.0,0.0,84,0.00,,,0.31,TxWx,2013-08-06 14:29:00,
2013-08-06 09:34:00,37.1,32.0,29.72,NNE,18,0.0,0.0,84,0.00,,,0.31,TxWx,2013-08-06 14:34:00,
2013-08-06 09:39:00,37.1,32.0,29.72,NNE,23,0.0,0.0,83,0.00,,,0.31,TxWx,2013-08-06 14:39:00,
2013-08-06 09:44:00,37.1,32.0,29.72,NNE,24,0.0,0.0,84,0.00,,,0.31,TxWx,2013-08-06 14:44:00,
2013-08-06 09:49:00,36.8,32.0,29.72,NNE,24,0.0,0.0,84,0.00,,,0.31,TxWx,2013-08-06 14:49:00,
2013-08-06 09:55:00,37.2,32.0,29.72,NNE,22,0.0,0.0,84,0.00,,,0.31,TxWx,2013-08-06 14:55:00,
2013-08-06 10:00:00,37.3,32.0,29.72,NNE,23,0.0,0.0,84,0.00,,,0.31,TxWx,2013-08-06 15:00:00,
2013-08-06 10:06:00,37.0,32.0,29.71,NNE,24,0.0,0.0,83,0.00,,,0.31,TxWx,2013-08-06 15:06:00,
2013-08-06 10:11:00,36.9,32.0,29.71,NNE,23,0.0,0.0,83,0.00,,,0.31,TxWx,2013-08-06 15:11:00,
2013-08-06 10:16:00,37.2,32.0,29.72,NNE,24,0.0,0.0,83,0.00,,,0.31,TxWx,2013-08-06 15:16:00,
2013-08-06 10:21:00,37.4,32.0,29.72,NNE,24,0.0,0.0,83,0.00,,,0.31,TxWx,2013-08-06 15:21:00,
2013-08-06 10:26:00,37.2,32.0,29.72,NNE,18,0.0,0.0,83,0.00,,,0.31,TxWx,2013-08-06 15:26:00,
2013-08-06 10:31:00,37.5,32.0,29.73,NNE,24,0.0,0.0,82,0.00,,,0.31,TxWx,2013-08-06 15:31:00,
2013-08-06 10:36:00,37.2,31.0,29.73,NNE,22,0.0,0.0,82,0.00,,,0.31,TxWx,2013-08-06 15:36:00,
2013-08-06 10:42:00,37.5,31.0,29.73,NNE,20,0.0,0.0,82,0.00,,,0.31,TxWx,2013-08-06 15:42:00,
2013-08-06 10:47:00,37.3,31.0,29.73,NNE,24,0.0,0.0,81,0.00,,,0.31,TxWx,2013-08-06 15:47:00,
2013-08-06 10:52:00,37.4,31.0,29.72,NNE,24,0.0,0.0,82,0.00,,,0.31,TxWx,2013-08-06 15:52:00,
2013-08-06 10:57:00,37.4,31.0,29.72,NNE,24,0.0,0.0,82,0.00,,,0.31,TxWx,2013-08-06 15:57:00,
2013-08-06 11:02:00,37.4,31.0,29.73,NNE,26,0.0,0.0,81,0.00,,,0.31,TxWx,2013-08-06 16:02:00,
2013-08-06 11:08:00,37.7,33.0,29.74,NNW,332,0.0,0.0,81,0.00,,,0.31,TxWx,2013-08-06 16:08:00,
2013-08-06 11:13:00,37.7,33.0,29.74,NNE,23,0.0,0.0,81,0.00,,,0.31,TxWx,2013-08-06 16:13:00,
2013-08-06 11:18:00,37.8,32.0,29.74,NNE,18,0.0,0.0,80,0.00,,,0.31,TxWx,2013-08-06 16:18:00,
2013-08-06 11:23:00,37.6,32.0,29.74,NE,52,0.0,0.0,80,0.00,,,0.31,TxWx,2013-08-06 16:23:00,
2013-08-06 11:29:00,37.9,32.0,29.74,NW,325,0.0,0.0,79,0.00,,,0.31,TxWx,2013-08-06 16:29:00,
2013-08-06 11:34:00,38.1,31.0,29.74,NNE,26,0.0,0.0,79,0.00,,,0.31,TxWx,2013-08-06 16:34:00,
2013-08-06 11:39:00,38.2,32.0,29.74,NNE,27,0.0,0.0,79,0.00,,,0.31,TxWx,2013-08-06 16:39:00,
2013-08-06 11:44:00,38.1,32.0,29.74,NNE,25,0.0,0.0,79,0.00,,,0.31,TxWx,2013-08-06 16:44:00,
2013-08-06 11:49:00,37.8,31.0,29.74,NNE,25,0.0,0.0,78,0.00,,,0.31,TxWx,2013-08-06 16:49:00,
2013-08-06 11:55:00,38.2,32.0,29.73,NNE,25,0.0,0.0,79,0.00,,,0.31,TxWx,2013-08-06 16:55:00,
2013-08-06 12:00:00,38.1,31.0,29.73,NNE,22,0.0,0.0,79,0.00,,,0.31,TxWx,2013-08-06 17:00:00,
2013-08-06 12:05:00,38.3,31.0,29.74,NNE,23,0.0,0.0,79,0.00,,,0.31,TxWx,2013-08-06 17:05:00,
2013-08-06 12:10:00,38.2,31.0,29.73,NNE,23,0.0,0.0,78,0.00,,,0.31,TxWx,2013-08-06 17:10:00,
2013-08-06 12:16:00,38.0,31.0,29.73,NNE,24,0.0,0.0,78,0.00,,,0.31,TxWx,2013-08-06 17:16:00,
2013-08-06 12:21:00,38.5,33.0,29.74,NNE,25,0.0,0.0,78,0.00,,,0.31,TxWx,2013-08-06 17:21:00,
2013-08-06 12:26:00,38.3,30.0,29.74,NNE,21,0.0,0.0,77,0.00,,,0.31,TxWx,2013-08-06 17:26:00,
2013-08-06 12:30:00,38.3,30.0,29.74,NNE,25,0.0,0.0,77,0.00,,,0.31,TxWx,2013-08-06 17:30:00,
2013-08-06 12:36:00,38.2,30.0,29.73,NNE,25,0.0,0.0,77,0.00,,,0.31,TxWx,2013-08-06 17:36:00,
2013-08-06 12:41:00,38.2,30.0,29.73,NNE,18,0.0,0.0,76,0.00,,,0.31,TxWx,2013-08-06 17:41:00,
2013-08-06 12:46:00,38.5,31.0,29.73,NNE,30,0.0,0.0,76,0.00,,,0.31,TxWx,2013-08-06 17:46:00,
2013-08-06 12:51:00,38.6,32.0,29.73,NNW,334,0.0,0.0,76,0.00,,,0.31,TxWx,2013-08-06 17:51:00,
2013-08-06 12:57:00,38.9,31.0,29.73,NNE,27,0.0,0.0,75,0.00,,,0.31,TxWx,2013-08-06 17:57:00,
2013-08-06 13:02:00,38.7,30.0,29.72,NNE,33,0.0,0.0,73,0.00,,,0.31,TxWx,2013-08-06 18:02:00,
2013-08-06 13:07:00,39.2,30.0,29.72,NNE,32,0.0,0.0,73,0.00,,,0.31,TxWx,2013-08-06 18:07:00,
2013-08-06 13:12:00,39.1,30.0,29.72,NNE,28,0.0,0.0,73,0.00,,,0.31,TxWx,2013-08-06 18:12:00,
2013-08-06 13:17:00,39.5,31.0,29.72,NNE,31,0.0,0.0,72,0.00,,,0.31,TxWx,2013-08-06 18:17:00,
2013-08-06 13:22:00,39.3,30.0,29.71,NNE,32,0.0,0.0,72,0.00,,,0.31,TxWx,2013-08-06 18:22:00,
2013-08-06 13:27:00,39.5,30.0,29.71,NNE,26,0.0,0.0,73,0.00,,,0.31,TxWx,2013-08-06 18:27:00,
2013-08-06 13:33:00,39.1,30.0,29.71,NNE,27,0.0,0.0,72,0.00,,,0.31,TxWx,2013-08-06 18:33:00,
2013-08-06 13:38:00,39.4,30.0,29.71,NNE,28,0.0,0.0,73,0.00,,,0.31,TxWx,2013-08-06 18:38:00,
2013-08-06 13:43:00,39.8,31.0,29.71,NNE,29,0.0,0.0,72,0.00,,,0.31,TxWx,2013-08-06 18:43:00,
2013-08-06 13:49:00,39.8,30.0,29.71,NNE,27,0.0,0.0,71,0.00,,,0.31,TxWx,2013-08-06 18:49:00,
2013-08-06 13:54:00,39.9,29.0,29.70,NNW,327,0.0,0.0,69,0.00,,,0.31,TxWx,2013-08-06 18:54:00,
2013-08-06 13:59:00,40.0,30.0,29.71,NNE,27,0.0,0.0,69,0.00,,,0.31,TxWx,2013-08-06 18:59:00,
2013-08-06 14:04:00,39.8,29.0,29.70,NNE,25,0.0,0.0,68,0.00,,,0.31,TxWx,2013-08-06 19:04:00,
2013-08-06 14:10:00,40.1,29.0,29.70,NNE,28,0.0,0.0,67,0.00,,,0.31,TxWx,2013-08-06 19:10:00,
2013-08-06 14:15:00,39.9,29.0,29.70,NNE,23,0.0,0.0,67,0.00,,,0.31,TxWx,2013-08-06 19:15:00,
2013-08-06 14:20:00,39.8,29.0,29.70,NNE,29,0.0,0.0,66,0.00,,,0.31,TxWx,2013-08-06 19:20:00,
2013-08-06 14:25:00,40.0,29.0,29.70,WSW,240,0.0,0.0,66,0.00,,,0.31,TxWx,2013-08-06 19:25:00,
2013-08-06 14:30:00,40.6,30.0,29.70,NNE,28,0.0,0.0,66,0.00,,,0.31,TxWx,2013-08-06 19:30:00,
2013-08-06 14:35:00,40.3,28.0,29.70,NNE,29,0.0,0.0,65,0.00,,,0.31,TxWx,2013-08-06 19:35:00,
2013-08-06 14:41:00,40.7,29.0,29.70,NNE,31,0.0,0.0,64,0.00,,,0.31,TxWx,2013-08-06 19:41:00,
2013-08-06 14:46:00,40.8,29.0,29.70,NNE,30,0.0,0.0,64,0.00,,,0.31,TxWx,2013-08-06 19:46:00,
2013-08-06 14:51:00,40.6,29.0,29.70,North,1,0.0,0.0,64,0.00,,,0.31,TxWx,2013-08-06 19:51:00,
2013-08-06 14:56:00,40.6,30.0,29.70,NNE,32,0.0,0.0,67,0.00,,,0.31,TxWx,2013-08-06 19:56:00,
2013-08-06 15:01:00,39.9,29.0,29.69,NNE,31,0.0,0.0,67,0.00,,,0.31,TxWx,2013-08-06 20:01:00,
2013-08-06 15:06:00,39.9,29.0,29.69,NNE,30,0.0,0.0,68,0.00,,,0.31,TxWx,2013-08-06 20:06:00,
2013-08-06 15:11:00,40.5,29.0,29.69,NNE,27,0.0,0.0,68,0.00,,,0.31,TxWx,2013-08-06 20:11:00,
2013-08-06 15:17:00,40.8,30.0,29.69,NNE,31,0.0,0.0,67,0.00,,,0.31,TxWx,2013-08-06 20:17:00,
2013-08-06 15:22:00,40.6,30.0,29.68,NNE,31,0.0,0.0,66,0.00,,,0.31,TxWx,2013-08-06 20:22:00,
2013-08-06 15:27:00,40.1,29.0,29.68,NNE,25,0.0,0.0,66,0.00,,,0.31,TxWx,2013-08-06 20:27:00,
2013-08-06 15:32:00,40.2,29.0,29.68,NNE,33,0.0,0.0,66,0.00,,,0.31,TxWx,2013-08-06 20:32:00,
2013-08-06 15:37:00,40.3,28.0,29.68,NNE,25,0.0,0.0,65,0.00,,,0.31,TxWx,2013-08-06 20:37:00,
2013-08-06 15:42:00,40.7,29.0,29.68,NNE,29,0.0,0.0,65,0.00,,,0.31,TxWx,2013-08-06 20:42:00,
2013-08-06 15:47:00,40.7,29.0,29.68,NNE,32,0.0,0.0,66,0.00,,,0.31,TxWx,2013-08-06 20:47:00,
2013-08-06 15:52:00,40.5,29.0,29.68,NNE,32,0.0,0.0,64,0.00,,,0.31,TxWx,2013-08-06 20:52:00,
2013-08-06 15:57:00,40.4,28.0,29.69,NE,34,0.0,0.0,64,0.00,,,0.31,TxWx,2013-08-06 20:57:00,
2013-08-06 16:02:00,40.4,28.0,29.69,NNE,30,0.0,0.0,65,0.00,,,0.31,TxWx,2013-08-06 21:02:00,
2013-08-06 16:08:00,40.3,28.0,29.68,NNE,28,0.0,0.0,65,0.00,,,0.31,TxWx,2013-08-06 21:08:00,
2013-08-06 16:13:00,40.5,28.0,29.69,NE,34,0.0,0.0,66,0.00,,,0.31,TxWx,2013-08-06 21:13:00,
2013-08-06 16:18:00,40.4,28.0,29.68,NNE,30,0.0,0.0,65,0.00,,,0.31,TxWx,2013-08-06 21:18:00,
2013-08-06 16:23:00,40.6,29.0,29.68,NNE,32,0.0,0.0,64,0.00,,,0.31,TxWx,2013-08-06 21:23:00,
2013-08-06 16:28:00,40.8,29.0,29.68,NNE,31,0.0,0.0,65,0.00,,,0.31,TxWx,2013-08-06 21:28:00,
2013-08-06 16:33:00,40.8,29.0,29.68,NNE,31,0.0,0.0,64,0.00,,,0.31,TxWx,2013-08-06 21:33:00,
2013-08-06 16:39:00,40.7,29.0,29.68,NNE,33,0.0,0.0,65,0.00,,,0.31,TxWx,2013-08-06 21:39:00,
2013-08-06 16:44:00,40.8,29.0,29.68,NE,35,0.0,0.0,65,0.00,,,0.31,TxWx,2013-08-06 21:44:00,
2013-08-06 16:49:00,40.8,29.0,29.68,NNE,33,0.0,0.0,64,0.00,,,0.31,TxWx,2013-08-06 21:49:00,
2013-08-06 16:54:00,40.6,29.0,29.68,NE,35,0.0,0.0,64,0.00,,,0.31,TxWx,2013-08-06 21:54:00,
2013-08-06 17:00:00,40.6,28.0,29.68,NNE,33,0.0,0.0,63,0.00,,,0.31,TxWx,2013-08-06 22:00:00,
2013-08-06 17:07:00,40.7,29.0,29.68,NNE,32,0.0,0.0,64,0.00,,,0.31,TxWx,2013-08-06 22:07:00,
2013-08-06 17:12:00,40.8,29.0,29.68,NNE,32,0.0,0.0,64,0.00,,,0.31,TxWx,2013-08-06 22:12:00,
2013-08-06 17:17:00,40.7,29.0,29.69,NNE,25,0.0,0.0,65,0.00,,,0.31,TxWx,2013-08-06 22:17:00,
2013-08-06 17:22:00,40.6,29.0,29.68,NNE,31,0.0,0.0,65,0.00,,,0.31,TxWx,2013-08-06 22:22:00,
2013-08-06 17:27:00,40.9,29.0,29.69,NNE,31,0.0,0.0,65,0.00,,,0.31,TxWx,2013-08-06 22:27:00,
2013-08-06 17:32:00,40.9,29.0,29.69,NE,36,0.0,0.0,65,0.00,,,0.31,TxWx,2013-08-06 22:32:00,
2013-08-06 17:37:00,40.6,30.0,29.69,NNE,33,0.0,0.0,66,0.00,,,0.31,TxWx,2013-08-06 22:37:00,
2013-08-06 17:43:00,40.7,30.0,29.69,NNE,32,0.0,0.0,67,0.00,,,0.31,TxWx,2013-08-06 22:43:00,
2013-08-06 17:48:00,40.8,30.0,29.69,NE,34,0.0,0.0,67,0.00,,,0.31,TxWx,2013-08-06 22:48:00,
2013-08-06 17:53:00,40.9,30.0,29.69,NE,35,0.0,0.0,67,0.00,,,0.31,TxWx,2013-08-06 22:53:00,
2013-08-06 17:58:00,40.6,30.0,29.69,NNE,33,0.0,0.0,66,0.00,,,0.31,TxWx,2013-08-06 22:58:00,
2013-08-06 18:03:00,40.7,30.0,29.69,NE,37,0.0,0.0,67,0.00,,,0.31,TxWx,2013-08-06 23:03:00,
2013-08-06 18:08:00,40.3,29.0,29.68,NNE,32,0.0,0.0,67,0.00,,,0.31,TxWx,2013-08-06 23:08:00,
2013-08-06 18:13:00,40.4,29.0,29.68,NE,35,0.0,0.0,68,0.00,,,0.31,TxWx,2013-08-06 23:13:00,
2013-08-06 18:19:00,40.3,29.0,29.68,NNE,32,0.0,0.0,68,0.00,,,0.31,TxWx,2013-08-06 23:19:00,
2013-08-06 18:24:00,40.1,30.0,29.68,NNE,33,0.0,0.0,69,0.00,,,0.31,TxWx,2013-08-06 23:24:00,
2013-08-06 18:29:00,40.0,30.0,29.68,NE,34,0.0,0.0,70,0.00,,,0.31,TxWx,2013-08-06 23:29:00,
2013-08-06 18:34:00,40.2,30.0,29.68,NE,36,0.0,0.0,70,0.00,,,0.31,TxWx,2013-08-06 23:34:00,
2013-08-06 18:39:00,40.3,30.0,29.68,NNE,33,0.0,0.0,71,0.00,,,0.31,TxWx,2013-08-06 23:39:00,
2013-08-06 18:45:00,40.2,30.0,29.69,NNE,32,0.0,0.0,71,0.00,,,0.31,TxWx,2013-08-06 23:45:00,
2013-08-06 18:50:00,40.1,31.0,29.69,NE,36,0.0,0.0,72,0.00,,,0.31,TxWx,2013-08-06 23:50:00,
2013-08-06 18:55:00,39.9,31.0,29.69,NE,36,0.0,0.0,72,0.00,,,0.31,TxWx,2013-08-06 23:55:00,
2013-08-06 19:00:00,39.8,31.0,29.69,NNE,33,0.0,0.0,72,0.00,,,0.31,TxWx,2013-08-07 00:00:00,
2013-08-06 19:05:00,39.8,31.0,29.69,NNE,32,0.0,0.0,72,0.00,,,0.31,TxWx,2013-08-07 00:05:00,
2013-08-06 19:10:00,39.9,31.0,29.69,NNE,33,0.0,0.0,73,0.00,,,0.31,TxWx,2013-08-07 00:10:00,
2013-08-06 19:15:00,39.8,31.0,29.69,NE,34,0.0,0.0,73,0.00,,,0.31,TxWx,2013-08-07 00:15:00,
2013-08-06 19:21:00,39.8,32.0,29.69,NNE,30,0.0,0.0,73,0.00,,,0.31,TxWx,2013-08-07 00:21:00,
2013-08-06 19:26:00,39.5,32.0,29.69,NNE,30,0.0,0.0,73,0.00,,,0.31,TxWx,2013-08-07 00:26:00,
2013-08-06 19:31:00,39.4,30.0,29.69,NNE,30,0.0,0.0,74,0.00,,,0.31,TxWx,2013-08-07 00:31:00,
2013-08-06 19:36:00,39.6,32.0,29.69,NNE,29,0.0,0.0,74,0.00,,,0.31,TxWx,2013-08-07 00:36:00,
2013-08-06 19:41:00,39.4,31.0,29.69,NNE,27,0.0,0.0,75,0.00,,,0.31,TxWx,2013-08-07 00:41:00,
2013-08-06 19:47:00,39.4,31.0,29.69,NNE,30,0.0,0.0,75,0.00,,,0.31,TxWx,2013-08-07 00:47:00,
2013-08-06 19:52:00,39.6,33.0,29.69,NNE,31,0.0,0.0,75,0.00,,,0.31,TxWx,2013-08-07 00:52:00,
2013-08-06 19:57:00,39.5,33.0,29.69,NNE,32,0.0,0.0,75,0.00,,,0.31,TxWx,2013-08-07 00:57:00,
2013-08-06 20:02:00,39.4,31.0,29.69,NNE,31,0.0,0.0,76,0.00,,,0.31,TxWx,2013-08-07 01:02:00,
2013-08-06 20:07:00,39.2,32.0,29.69,NNE,30,0.0,0.0,76,0.00,,,0.31,TxWx,2013-08-07 01:07:00,
2013-08-06 20:12:00,39.1,32.0,29.69,NNE,25,0.0,0.0,77,0.00,,,0.31,TxWx,2013-08-07 01:12:00,
2013-08-06 20:17:00,39.3,32.0,29.69,NNE,29,0.0,0.0,77,0.00,,,0.31,TxWx,2013-08-07 01:17:00,
2013-08-06 20:23:00,39.3,32.0,29.69,NNE,30,0.0,0.0,77,0.00,,,0.31,TxWx,2013-08-07 01:23:00,
2013-08-06 20:28:00,39.1,33.0,29.69,NNE,30,0.0,0.0,78,0.00,,,0.31,TxWx,2013-08-07 01:28:00,
2013-08-06 20:33:00,39.0,33.0,29.69,NNE,28,0.0,0.0,78,0.00,,,0.31,TxWx,2013-08-07 01:33:00,
2013-08-06 20:38:00,39.1,33.0,29.69,NNE,29,0.0,0.0,78,0.00,,,0.31,TxWx,2013-08-07 01:38:00,
2013-08-06 20:43:00,38.9,33.0,29.69,NNE,30,0.0,0.0,79,0.00,,,0.31,TxWx,2013-08-07 01:43:00,
2013-08-06 20:49:00,38.7,33.0,29.69,NNE,29,0.0,0.0,79,0.00,,,0.31,TxWx,2013-08-07 01:49:00,
2013-08-06 20:54:00,38.5,33.0,29.69,NNE,32,0.0,0.0,80,0.00,,,0.31,TxWx,2013-08-07 01:54:00,
2013-08-06 20:59:00,38.6,33.0,29.69,NNE,29,0.0,0.0,80,0.00,,,0.31,TxWx,2013-08-07 01:59:00,
2013-08-06 21:04:00,38.5,34.0,29.70,NNE,30,0.0,0.0,81,0.00,,,0.31,TxWx,2013-08-07 02:04:00,
2013-08-06 21:09:00,38.8,34.0,29.70,NNE,29,0.0,0.0,81,0.00,,,0.31,TxWx,2013-08-07 02:09:00,
2013-08-06 21:14:00,38.6,34.0,29.70,NNE,31,0.0,0.0,81,0.00,,,0.31,TxWx,2013-08-07 02:14:00,
2013-08-06 21:20:00,38.8,34.0,29.70,NNE,32,0.0,0.0,81,0.00,,,0.31,TxWx,2013-08-07 02:20:00,
2013-08-06 21:25:00,38.4,33.0,29.70,NNE,30,0.0,0.0,81,0.00,,,0.31,TxWx,2013-08-07 02:25:00,
2013-08-06 21:30:00,38.4,33.0,29.70,NNE,27,0.0,0.0,81,0.00,,,0.31,TxWx,2013-08-07 02:30:00,
2013-08-06 21:35:00,38.3,33.0,29.70,NNE,32,0.0,0.0,82,0.00,,,0.31,TxWx,2013-08-07 02:35:00,
2013-08-06 21:40:00,38.4,33.0,29.70,NNE,31,0.0,0.0,82,0.00,,,0.31,TxWx,2013-08-07 02:40:00,
2013-08-06 21:45:00,38.5,33.0,29.70,NNE,30,0.0,0.0,82,0.00,,,0.31,TxWx,2013-08-07 02:45:00,
2013-08-06 21:51:00,38.4,33.0,29.70,NNE,30,0.0,0.0,83,0.00,,,0.31,TxWx,2013-08-07 02:51:00,
2013-08-06 21:56:00,38.3,33.0,29.71,NNE,30,0.0,0.0,83,0.00,,,0.31,TxWx,2013-08-07 02:56:00,
2013-08-06 22:01:00,38.4,33.0,29.71,NNE,29,0.0,0.0,83,0.00,,,0.31,TxWx,2013-08-07 03:01:00,
2013-08-06 22:06:00,38.2,33.0,29.71,NNE,27,0.0,0.0,83,0.00,,,0.31,TxWx,2013-08-07 03:06:00,
2013-08-06 22:11:00,38.2,33.0,29.71,NNE,26,0.0,0.0,83,0.00,,,0.31,TxWx,2013-08-07 03:11:00,
2013-08-06 22:17:00,38.1,33.0,29.70,NNE,28,0.0,0.0,83,0.00,,,0.31,TxWx,2013-08-07 03:17:00,
2013-08-06 22:22:00,38.1,33.0,29.70,NNE,28,0.0,0.0,83,0.00,,,0.31,TxWx,2013-08-07 03:22:00,
2013-08-06 22:27:00,38.0,33.0,29.71,NNE,27,0.0,0.0,83,0.00,,,0.31,TxWx,2013-08-07 03:27:00,
2013-08-06 22:32:00,38.2,33.0,29.70,NNE,27,0.0,0.0,83,0.00,,,0.31,TxWx,2013-08-07 03:32:00,
2013-08-06 22:38:00,38.1,33.0,29.70,NNE,27,0.0,0.0,84,0.00,,,0.31,TxWx,2013-08-07 03:38:00,
2013-08-06 22:43:00,37.9,33.0,29.70,NNE,27,0.0,0.0,84,0.00,,,0.31,TxWx,2013-08-07 03:43:00,
2013-08-06 22:48:00,38.1,34.0,29.70,NNE,27,0.0,0.0,84,0.00,,,0.31,TxWx,2013-08-07 03:48:00,
2013-08-06 22:53:00,37.9,34.0,29.70,NNE,27,0.0,0.0,85,0.00,,,0.31,TxWx,2013-08-07 03:53:00,
2013-08-06 22:58:00,38.0,34.0,29.70,NNE,27,0.0,0.0,85,0.00,,,0.31,TxWx,2013-08-07 03:58:00,
2013-08-06 23:01:00,38.0,34.0,29.70,NNE,27,0.0,0.0,85,0.00,,,0.31,TxWx,2013-08-07 04:01:00,
2013-08-06 23:02:00,37.8,34.0,29.70,NNE,28,0.0,0.0,85,0.00,,,0.31,TxWx,2013-08-07 04:02:00,
2013-08-06 23:03:00,38.0,34.0,29.70,NNE,27,0.0,0.0,85,0.00,,,0.31,TxWx,2013-08-07 04:03:00,
2013-08-06 23:08:00,37.7,34.0,29.70,NNE,28,0.0,0.0,85,0.00,,,0.31,TxWx,2013-08-07 04:08:00,
2013-08-06 23:13:00,37.4,33.0,29.69,NNE,28,0.0,0.0,85,0.00,,,0.31,TxWx,2013-08-07 04:13:00,
2013-08-06 23:18:00,37.2,33.0,29.69,NNE,28,0.0,0.0,86,0.00,,,0.31,TxWx,2013-08-07 04:18:00,
2013-08-06 23:23:00,37.1,33.0,29.69,NNE,28,0.0,0.0,86,0.00,,,0.31,TxWx,2013-08-07 04:23:00,
2013-08-06 23:29:00,37.1,33.0,29.69,NNE,28,0.0,0.0,86,0.00,,,0.31,TxWx,2013-08-07 04:29:00,
2013-08-06 23:34:00,37.0,33.0,29.68,NNE,28,0.0,0.0,86,0.00,,,0.31,TxWx,2013-08-07 04:34:00,
2013-08-06 23:39:00,36.5,33.0,29.68,NNE,28,0.0,0.0,86,0.00,,,0.31,TxWx,2013-08-07 04:39:00,
2013-08-06 23:44:00,36.7,33.0,29.68,NNE,28,0.0,0.0,87,0.00,,,0.31,TxWx,2013-08-07 04:44:00,
2013-08-06 23:49:00,36.4,32.0,29.68,NNE,29,0.0,0.0,87,0.00,,,0.31,TxWx,2013-08-07 04:49:00,
2013-08-06 23:55:00,36.3,32.0,29.67,NNE,27,0.0,0.0,87,0.00,,,0.31,TxWx,2013-08-07 04:55:00,